NOAA 16 DEB, 41525

Orbit data source: Space-Track

NOAA 16 DEB, 41525 is space debris in SSO originally from a launch on Thu, 21 Sep 2000 UTC launched from the Air Force Western Test Range (AFWTR). Debris objects in space refer to the collection of defunct objects orbiting the Earth. Examples of debris include non-operational satellites, rocket bodies, and fragments generated from explosions, collisions, or faulty payload assembly.

Loading next visibility...
Identifier
41525, 2000-055MZ
Orbit
SSO
Country
Flag of USUS
Related business
Manufacturer
Unknown
Mission
Spacecraft
Bus & Motor
Unknown
Mass
Unknown
Launch date (UTC)
2000-09-21 (25 years ago)
Launch vehicle
Unknown
Launch site
Air Force Western Test Range (AFWTR)
Object type
Payload
Rocket body
Debris
Shape & HBR
Unknown shape, 0.1 m
Radar Cross Section
Small (<0.1 m²)

Expand to show TLE details & history
Last TLE update: 18 hours ago

TLE from 18 hours ago
0 NOAA 16 DEB
1 41525U 00055MZ  25293.15548317  .00007910  00000-0  31756-2 0  9993
2 41525  98.6739   1.0212 0013541 150.2483 209.9471 14.28392564495334
Epoch: 2025-10-20T03:43Z
TLE epoch observation values (Epoch: 2025-10-20T03:43:53.745Z)
Latitude
-0.00003°
Longitude
-83.81458°
Altitude
808.46 km
Speed
7.445 km/s
True Right ascension
00h 04m 05s
True Declination
0° 00' 00"
Sunlit
Object was in full shadow at epoch
Visualization orbit readout
Latitude
Unknown
Longitude
Unknown
Altitude
Unknown
Speed
Unknown
Apparent Right ascension
Unknown
Apparent Declination
Unknown
Sunlit
N/A
Visualization observer readout
Local Sidereal Time
16:18:43
Azimuth
Unknown
Elevation
Unknown
Doppler factor
Unknown
Orbital elements
Apogee altitude
803.967 km
Perigee altitude
784.542 km
Semi-major axis
7,172.392 km
Eccentricity
0.00135
Inclination
98.6739°
RAAN
1.0212°
Arg. of periapsis
150.2483°
True anomaly
209.86975°
Mean anomaly
209.9471°
Eccentric anomaly
209.90842°
Mean motion
3.57312 °/min
Orbital period
100.75 mins
BSTAR
0.0031756
Loading maneuver chart data...
Computing Atmospheric mass density...
Loading historical data...
Loading historical data...
Loading historical data...
Loading historical data...
Loading historical data...
Loading historical data...
Loading historical data...

Documentation

Showing up to 5 results
|